| time (UTC) | temp F | wind direction | speed knots | gust knots | rain 1hr in | rain 24hr in | rain mn in | humidity % | barometer mb |
| 20260510214451 | 67 | 72 | 3.5 | 7.8 | 0.00 | 0.00 | 0.00 | 78 | 1013.3 |
| 20260510212951 | 67 | 97 | 0.9 | 2.6 | 0.00 | 0.00 | 0.00 | 79 | 1013.1 |
| 20260510211451 | 67 | 73 | 0.0 | 1.7 | 0.00 | 0.00 | 0.00 | 79 | 1013.3 |
| 20260510204453 | 68 | 79 | 3.5 | 9.6 | 0.00 | 0.00 | 0.00 | 74 | 1013.1 |
| 20260510201451 | 71 | 41 | 1.7 | 5.2 | 0.00 | 0.00 | 0.00 | 67 | 1012.7 |
| 20260510195956 | 72 | 55 | 4.3 | 11.3 | 0.00 | 0.00 | 0.00 | 64 | 1012.8 |
| 20260510194452 | 73 | 74 | 6.1 | 11.3 | 0.00 | 0.00 | 0.00 | 64 | 1012.7 |
| 20260510192951 | 74 | 75 | 2.6 | 6.1 | 0.00 | 0.00 | 0.00 | 63 | 1012.8 |
| 20260510191452 | 74 | 27 | 4.3 | 11.3 | 0.00 | 0.00 | 0.00 | 63 | 1013.0 |
| 20260510185956 | 75 | 102 | 0.9 | 5.2 | 0.00 | 0.00 | 0.00 | 62 | 1013.0 |
| 20260510184452 | 73 | 60 | 3.5 | 7.0 | 0.00 | 0.00 | 0.00 | 67 | 1013.1 |
| 20260510182951 | 73 | 63 | 5.2 | 8.7 | 0.00 | 0.00 | 0.00 | 63 | 1013.2 |
| 20260510181451 | 75 | 45 | 3.5 | 11.3 | 0.00 | 0.00 | 0.00 | 58 | 1013.1 |
| 20260510175955 | 73 | 72 | 5.2 | 11.3 | 0.00 | 0.00 | 0.00 | 61 | 1013.3 |
| 20260510174451 | 75 | 78 | 2.6 | 7.8 | 0.00 | 0.00 | 0.00 | 59 | 1013.4 |
| 20260510171451 | 76 | 65 | 2.6 | 10.4 | 0.00 | 0.00 | 0.00 | 58 | 1013.2 |
| 20260510165955 | 76 | 335 | 1.7 | 7.8 | 0.00 | 0.00 | 0.00 | 59 | 1013.4 |
| 20260510164451 | 74 | 290 | 2.6 | 10.4 | 0.00 | 0.00 | 0.00 | 61 | 1013.3 |
| 20260510162951 | 74 | 307 | 1.7 | 4.3 | 0.00 | 0.00 | 0.00 | 63 | 1013.3 |
| 20260510161452 | 73 | 19 | 2.6 | 6.1 | 0.00 | 0.00 | 0.00 | 62 | 1013.4 |
| 20260510155954 | 72 | 329 | 2.6 | 5.2 | 0.00 | 0.00 | 0.00 | 62 | 1013.4 |
| 20260510154450 | 72 | 344 | 1.7 | 5.2 | 0.00 | 0.00 | 0.00 | 64 | 1013.4 |
| 20260510151451 | 71 | 294 | 2.6 | 5.2 | 0.00 | 0.00 | 0.00 | 64 | 1013.5 |
| 20260510145954 | 71 | 348 | 1.7 | 6.1 | 0.00 | 0.00 | 0.00 | 67 | 1013.4 |
| 20260510144451 | 71 | 56 | 1.7 | 7.0 | 0.00 | 0.00 | 0.00 | 66 | 1013.1 |
| 20260510142951 | 69 | 16 | 2.6 | 6.1 | 0.00 | 0.00 | 0.00 | 70 | 1013.1 |
| 20260510141451 | 69 | 319 | 1.7 | 5.2 | 0.00 | 0.00 | 0.00 | 68 | 1013.3 |
| 20260510135955 | 67 | 330 | 1.7 | 6.1 | 0.00 | 0.00 | 0.00 | 72 | 1013.4 |
| 20260510134451 | 65 | 343 | 2.6 | 6.1 | 0.00 | 0.00 | 0.00 | 77 | 1013.2 |
| 20260510132951 | 64 | 295 | 1.7 | 3.5 | 0.00 | 0.00 | 0.00 | 81 | 1013.1 |
| 20260510131451 | 62 | 333 | 0.9 | 2.6 | 0.00 | 0.00 | 0.00 | 85 | 1013.3 |
| 20260510124451 | 59 | 314 | 0.9 | 3.5 | 0.00 | 0.00 | 0.00 | 93 | 1013.2 |
| 20260510122951 | 58 | 46 | 0.9 | 2.6 | 0.00 | 0.00 | 0.00 | 96 | 1013.0 |
| 20260510121450 | 57 | 289 | 0.0 | 0.9 | 0.00 | 0.00 | 0.00 | 96 | 1013.0 |
| 20260510115954 | 55 | 94 | 0.0 | 0.9 | 0.00 | 0.00 | 0.00 | 96 | 1012.8 |
| 20260510114451 | 54 | 94 | 0.0 | 1.7 | 0.00 | 0.00 | 0.00 | 96 | 1012.5 |
| 20260510112951 | 53 | 88 | 0.0 | 1.7 | 0.00 | 0.00 | 0.00 | 96 | 1012.3 |
| 20260510111451 | 52 | 254 | 0.0 | 0.9 | 0.00 | 0.00 | 0.00 | 95 | 1012.2 |
| 20260510105955 | 52 | 66 | 0.9 | 3.5 | 0.00 | 0.00 | 0.00 | 95 | 1012.1 |
| 20260510104451 | 51 | 60 | 1.7 | 5.2 | 0.00 | 0.00 | 0.00 | 95 | 1012.2 |
| 20260510102950 | 51 | 96 | 0.9 | 1.7 | 0.00 | 0.00 | 0.00 | 95 | 1011.8 |
| 20260510101451 | 50 | 39 | 0.0 | 0.9 | 0.00 | 0.00 | 0.00 | 95 | 1011.7 |
| 20260510094451 | 50 | 39 | 0.0 | 0.9 | 0.00 | 0.00 | 0.00 | 95 | 1011.4 |
| 20260510092951 | 49 | 39 | 0.0 | 0.9 | 0.00 | 0.00 | 0.00 | 95 | 1011.3 |
| 20260510091451 | 49 | 39 | 0.0 | 0.0 | 0.00 | 0.00 | 0.00 | 94 | 1011.2 |
| 20260510085955 | 50 | 39 | 0.0 | 0.9 | 0.00 | 0.00 | 0.00 | 94 | 1011.2 |
| 20260510082951 | 51 | 164 | 1.7 | 5.2 | 0.00 | 0.00 | 0.00 | 95 | 1011.0 |
| 20260510081451 | 51 | 154 | 2.6 | 10.4 | 0.00 | 0.00 | 0.00 | 95 | 1010.9 |
| 20260510075955 | 50 | 95 | 0.0 | 0.9 | 0.00 | 0.00 | 0.00 | 94 | 1010.5 |
| 20260510072951 | 50 | 151 | 0.0 | 0.0 | 0.00 | 0.00 | 0.00 | 93 | 1010.5 |
| 20260510071451 | 51 | 151 | 0.0 | 0.9 | 0.00 | 0.00 | 0.00 | 94 | 1010.4 |
| 20260510065953 | 51 | 117 | 0.0 | 0.9 | 0.00 | 0.00 | 0.00 | 94 | 1010.4 |
| 20260510064451 | 51 | 105 | 0.0 | 1.7 | 0.00 | 0.00 | 0.00 | 94 | 1010.2 |
| 20260510052952 | 52 | 212 | 0.0 | 0.0 | 0.00 | 0.00 | 0.00 | 93 | 1010.5 |
| 20260510051453 | 52 | 188 | 0.0 | 0.0 | 0.00 | 0.00 | 0.00 | 93 | 1010.6 |
| 20260510045954 | 52 | 147 | 0.0 | 0.9 | 0.00 | 0.00 | 0.00 | 93 | 1010.6 |
| 20260510044451 | 53 | 181 | 1.7 | 3.5 | 0.00 | 0.00 | 0.00 | 93 | 1010.5 |
| 20260510042951 | 52 | 174 | 0.9 | 3.5 | 0.00 | 0.00 | 0.00 | 93 | 1010.7 |
| 20260510041450 | 52 | 161 | 0.0 | 2.6 | 0.00 | 0.00 | 0.00 | 93 | 1010.7 |
| 20260510034451 | 52 | 178 | 0.0 | 0.0 | 0.00 | 0.00 | 0.00 | 92 | 1010.9 |
| 20260510032951 | 52 | 166 | 0.0 | 0.0 | 0.00 | 0.00 | 0.00 | 92 | 1010.8 |
| 20260510031451 | 53 | 153 | 0.0 | 0.0 | 0.00 | 0.00 | 0.00 | 92 | 1010.7 |
| 20260510024452 | 53 | 170 | 0.0 | 0.9 | 0.00 | 0.00 | 0.00 | 91 | 1010.3 |
| 20260510022951 | 53 | 166 | 0.0 | 0.9 | 0.00 | 0.00 | 0.00 | 91 | 1010.4 |
| 20260510021451 | 53 | 151 | 0.0 | 1.7 | 0.00 | 0.00 | 0.00 | 91 | 1010.5 |
| 20260510014451 | 54 | 199 | 0.0 | 1.7 | 0.00 | 0.00 | 0.00 | 91 | 1010.2 |
| 20260510012951 | 54 | 184 | 0.9 | 2.6 | 0.00 | 0.00 | 0.00 | 90 | 1010.1 |
| 20260510011451 | 54 | 156 | 0.0 | 1.7 | 0.00 | 0.00 | 0.00 | 90 | 1010.0 |
| 20260510005954 | 54 | 190 | 0.0 | 1.7 | 0.00 | 0.00 | 0.00 | 90 | 1009.9 |
| 20260510004451 | 54 | 161 | 0.9 | 2.6 | 0.00 | 0.00 | 0.00 | 89 | 1009.7 |
| 20260510002951 | 55 | 206 | 0.0 | 1.7 | 0.00 | 0.00 | 0.00 | 89 | 1009.7 |
| 20260510001452 | 55 | 207 | 0.0 | 0.9 | 0.00 | 0.00 | 0.00 | 87 | 1009.6 |
| 20260509235955 | 56 | 195 | 0.0 | 1.7 | 0.00 | 0.00 | 0.00 | 86 | 1009.6 |
| 20260509234451 | 57 | 193 | 0.9 | 2.6 | 0.00 | 0.00 | 0.00 | 85 | 1009.8 |
| 20260509232951 | 58 | 177 | 0.9 | 2.6 | 0.00 | 0.00 | 0.00 | 84 | 1009.6 |
| 20260509231452 | 58 | 169 | 0.9 | 2.6 | 0.00 | 0.00 | 0.00 | 82 | 1009.6 |
| 20260509224451 | 59 | 182 | 1.7 | 4.3 | 0.00 | 0.00 | 0.00 | 80 | 1009.4 |
| 20260509222951 | 60 | 184 | 0.9 | 4.3 | 0.00 | 0.00 | 0.00 | 81 | 1009.7 |
| 20260509221451 | 59 | 153 | 0.9 | 3.5 | 0.00 | 0.00 | 0.00 | 81 | 1009.7 |